Location: Alt?nda?
(36.8903°N, 30.6926°E)
Time: 11:30:55
(UTC+00:00)

Daily predictions for brighter satellites

Satellite Brightness Start Highest point End
(mag) Time Altitude Azimuth Time Altitude Azimuth Time Altitude Azimuth
CZ-4B R/B 3.3 17:27:19 10° SSE 17:32:35 61° ENE 17:37:48 10° N
Cosmos 1464 Rocket 4.1 17:28:10 10° N 17:34:23 62° E 17:40:29 10° SSE
USA 290 2.5 17:33:03 10° N 17:36:12 51° ENE 17:39:19 10° SSE
Cosmos 2056 Rocket 4.1 17:38:54 10° N 17:43:58 42° ENE 17:48:57 10° SE
Cosmos 1515 3.8 17:40:33 10° SSW 17:44:00 68° W 17:47:28 10° N
Cosmos 2297 4.4 17:41:02 10° N 17:46:24 39° ENE 17:51:38 10° SE
Meteor 2-16 Rocket 4.4 17:40:47 10° S 17:46:48 71° E 17:52:51 10° NNE
Cosmos 921 Rocket 3.2 17:44:52 10° S 17:49:13 57° ESE 17:53:38 10° NNE
Lacrosse 5 2.0 17:45:37 10° NW 17:50:44 79° SW 17:55:49 10° SE
CARTOSAT-1 3.6 17:46:56 10° SSE 17:51:08 64° ENE 17:55:21 10° N
Cosmos 494 Rocket 4.1 17:52:50 10° S 17:57:45 52° ESE 18:02:42 10° NNE
Aureole 3 Rocket 4.1 17:55:04 10° N 17:59:29 43° E 18:05:32 10° SSE
CSL-04 Rocket 3.6 17:55:33 10° SSE 18:00:51 84° ENE 18:06:09 10° NNW
SL-16 R/B 3.4 17:59:22 10° SW 18:04:49 47° WNW 18:10:18 10° N
Meteor 1-26 Rocket 4.5 17:58:55 10° S 18:04:58 87° W 18:11:01 10° N
NOSS 3-1 (A) 4.4 17:58:57 10° NW 18:06:47 78° WSW 18:15:59 10° SSE
CSL-04 Debris 4.3 18:01:23 10° S 18:06:51 79° WSW 18:12:19 10° NNW
Cosmos 1603 4.4 18:02:56 10° SSE 18:07:51 32° ESE 18:12:49 10° NE
CZ-4C R/B 3.6 18:04:15 10° NNE 18:08:01 46° E 18:11:53 10° S
Okean-O 3.1 18:04:36 14° SE 18:08:09 44° ENE 18:12:21 10° N
Cosmos 1743 3.3 18:07:59 10° NNE 18:11:19 34° E 18:13:17 19° SE
SPOT 5 3.7 18:08:37 16° SE 18:11:35 31° ENE 18:15:27 10° N
USA 186 3.4 18:09:29 10° SSW 18:12:20 32° W 18:15:18 10° NNW
Cosmos 1048 Rocket 4.1 18:09:13 10° S 18:14:12 53° ESE 18:19:11 10° NNE
Cosmos 2369 Rocket 2.5 18:11:27 10° NNW 18:16:55 52° ENE 18:20:53 18° SE
Cosmos 1656 Rocket 3.6 18:12:14 10° NNW 18:17:44 71° ENE 18:22:00 17° SSE
FALCON 9 R/B 2.6 18:16:27 10° W 18:20:37 73° S 18:33:53 10° E
IUS-1 SRM-2 4.5 18:07:15 10° W 18:21:25 32° SSW 18:24:36 17° SSE
Cosmos 2034 Rocket 4.1 18:16:05 10° N 18:22:20 80° W 18:28:37 10° S
Meteor 2-6 Rocket 4.2 18:16:48 10° S 18:22:20 65° E 18:27:45 10° NNE
USA 229 DEB 4.3 18:15:24 10° NNW 18:22:52 57° NE 18:28:50 19° SE
Cosmos 44 3.3 18:18:14 10° NW 18:22:55 68° WSW 18:26:12 18° SSE
USA 229 4.3 18:15:30 10° NNW 18:22:58 56° NE 18:28:56 19° SE
MOS 1 4.4 18:21:35 16° SSE 18:26:04 64° ENE 18:31:40 10° N
Cosmos 1371 Rocket 4.3 18:25:03 10° NNW 18:30:23 71° WSW 18:34:51 15° S
Cosmos 2084 3.3 18:28:19 10° NW 18:32:03 65° WSW 18:34:06 25° SSE
Hubble Space Telescope 2.8 18:30:32 10° SSW 18:31:31 13° S 18:31:31 13° S
SeaSat 1 3.7 18:29:54 10° S 18:34:23 36° WSW 18:38:53 10° NW
Tsikada Rocket 4.2 18:29:35 10° SSW 18:35:45 73° W 18:42:00 10° N
Cosmos 1943 3.3 18:36:05 10° SSW 18:41:46 79° WNW 18:47:27 10° NNE
Cosmos 1536 4.0 18:38:47 10° NNE 18:42:04 25° ENE 18:42:34 25° E
IRS-1C Rocket 4.2 18:40:19 25° SSE 18:43:21 63° ENE 18:48:34 10° N
OAO 1 4.5 18:38:41 10° WSW 18:44:07 65° S 18:47:54 20° E
IRS-1A Rocket 4.4 18:41:56 25° SE 18:45:12 62° ENE 18:50:41 10° N
Spot 2 Rocket 4.3 18:44:58 26° ESE 18:46:52 35° ENE 18:51:24 10° N
Cosmos 1842 Rocket 3.5 18:44:45 18° S 18:48:03 87° E 18:52:29 10° N
Cosmos 1726 2.3 18:46:11 10° N 18:49:00 37° ENE 18:49:00 37° ENE
ARGOS Delta rocket 4.1 18:47:46 30° SE 18:50:01 54° ENE 18:54:43 10° N
Resurs 01 Rocket 3.7 18:46:25 10° SSW 18:50:01 24° W 18:53:37 10° NW
Okean 3 Rocket 3.5 18:49:54 10° N 18:54:16 71° E 18:55:50 38° SSE
SPOT 3 Rocket 4.2 18:55:32 30° ESE 18:57:12 39° ENE 19:01:56 10° N
USA 276 3.2 18:57:38 10° WNW 18:58:56 29° WNW 18:58:56 29° WNW
USA 281 4.4 18:56:38 20° E 18:59:52 30° NE 19:05:24 10° N
Okean O Rocket 3.7 18:56:54 10° SSW 19:00:23 22° W 19:03:53 10° NW
Meteor 1-27 Rocket 3.9 18:58:34 34° SE 19:00:29 47° E 19:05:45 10° NNE
ISS -2.6 18:57:23 10° NNW 19:00:30 34° NE 19:01:04 32° ENE
ATLAS 3B R/B 4.1 18:57:46 10° NW 19:04:46 37° WSW 19:10:34 14° S
Sich 1 3.9 19:04:05 10° NNE 19:08:01 32° ENE 19:08:10 32° E
MetOp-B 4.4 19:05:31 26° S 19:08:33 66° WSW 19:13:53 10° NNW
Cosmos 1340 4.4 19:07:01 10° NNE 19:08:37 17° NE 19:08:37 17° NE
Ariane Rocket 3.1 19:08:13 41° SE 19:09:42 57° ENE 19:14:41 10° N
Molniya-1 3.4 19:10:01 56° SSE 19:10:26 61° ESE 19:16:26 10° NE
GEOS 3 Rocket 3.4 19:15:01 10° NE 19:20:09 67° ESE 19:22:30 32° SSW
Terra 1.7 19:20:54 52° S 19:22:03 88° WSW 19:26:48 10° NNW
DELTA 2 R/B (1) 4.1 19:17:56 10° SW 19:22:04 39° S 19:22:04 39° S
MOS 1 Rocket 3.5 19:22:52 51° SE 19:24:01 66° ENE 19:29:16 10° N
Cosmos 1340 Rocket 2.8 19:28:03 71° ENE 19:28:03 71° ENE 19:31:47 10° NNE
Cosmos 1452 Rocket 3.5 19:24:33 10° NNW 19:29:47 73° WSW 19:31:09 49° S
Cosmos 1743 Rocket 3.7 19:29:35 10° N 19:33:50 59° ENE 19:33:50 59° ENE
ERS-1 Rocket 3.4 19:32:32 39° SSW 19:34:07 57° W 19:39:04 10° NNW
Centaur D AC-29 3.4 19:29:59 10° WSW 19:35:37 48° SSE 20:08:30 10° E
Centaur D AC-29 3.4 19:29:58 10° WSW 19:35:38 48° SSE 20:08:29 10° E
Centaur D AC-29 3.4 19:29:59 10° WSW 19:35:38 48° SSE 20:08:30 10° E
Centaur D AC-29 3.4 19:29:58 10° WSW 19:35:38 48° SSE 20:08:30 10° E
Nadezhda 4 Rocket 3.9 19:36:46 44° S 19:38:55 85° E 19:45:11 10° N
Meteor 2-10 3.9 19:36:55 10° N 19:42:24 86° E 19:43:13 65° SSE
Cosmos 1408 Rocket 4.0 19:39:23 10° NNW 19:43:44 55° W 19:44:16 51° WSW
Cosmos 614 Rocket 3.8 19:45:56 70° S 19:46:31 83° ESE 19:51:44 10° NNE
Spot 1 4.2 19:45:35 10° N 19:49:40 64° WNW 19:49:53 63° W
Cosmos 1833 Rocket 4.1 19:53:47 23° ENE 19:53:47 23° ENE 19:56:39 10° NE
BREEZE-M DEB (TANK) 3.2 19:59:04 61° E 19:59:04 61° E 20:07:49 10° NE
Cosmos 1151 Rocket 3.4 20:00:27 62° WNW 20:00:27 62° WNW 20:04:33 10° N
Cosmos 2369 Rocket 4.2 19:56:42 10° WNW 20:00:25 18° W 20:02:41 15° SW
Cosmos 1975 4.2 20:05:33 10° N 20:07:58 34° NNE 20:07:58 34° NNE
Cosmos 1302 Rocket 4.0 20:07:26 10° NNW 20:12:31 75° W 20:12:31 75° W
Cosmos 1992 Rocket 4.4 20:08:19 10° N 20:13:05 51° NE 20:13:05 51° NE
Cosmos 1656 4.2 20:11:28 10° N 20:16:42 44° ENE 20:16:42 44° ENE
Cosmos 2026 Rocket 3.9 20:17:40 71° S 20:18:26 89° W 20:24:43 10° N
NOSS 3-3 (A) 3.8 20:20:45 62° WSW 20:21:31 72° WNW 20:27:31 10° NNE
Cosmos 1627 Rocket 4.4 20:23:09 69° SSW 20:23:57 83° W 20:30:17 10° N
H-2A R/B 4.3 20:26:16 24° NE 20:26:16 24° NE 20:28:35 10° N
USA 59 Rocket 0.7 20:22:42 10° NNW 20:26:34 63° NNE 20:26:34 63° NNE
Lacrosse 4 Rocket 2.9 20:23:57 10° NNW 20:26:31 31° NNE 20:26:31 31° NNE
NOSS 2-1 (E) 4.2 20:24:45 10° NNW 20:28:34 64° N 20:28:34 64° N
IRIDIUM 104 4.4 20:24:03 10° N 20:28:54 72° NW 20:28:54 72° NW
Cosmos 1633 Rocket 4.1 20:31:26 10° N 20:34:27 43° N 20:34:27 43° N
NOSS 2-1 (D) 4.4 20:37:21 10° NNW 20:40:43 56° NW 20:40:43 56° NW
USA 281 3.6 20:43:30 49° WSW 20:44:01 50° WSW 20:50:25 10° NNW
Meteor 2-12 Rocket 4.4 20:45:05 71° ENE 20:45:05 71° ENE 20:50:51 10° N
Cosmos 1607 4.0 20:53:10 76° ENE 20:53:10 76° ENE 20:59:14 10° NNE
Cosmos 1697 Rocket 3.7 20:48:45 10° N 20:53:46 36° ENE 20:53:46 36° ENE
Cosmos 1553 Rocket 4.0 20:49:37 10° N 20:55:18 71° NE 20:55:18 71° NE
Cosmos 2285 Rocket 4.3 20:59:40 57° ENE 20:59:40 57° ENE 21:05:02 10° NNE
Cosmos 1980 Rocket 4.0 20:57:48 10° N 21:02:01 21° NE 21:02:54 20° ENE
ARIANE 5 R/B 4.3 21:12:44 29° NW 21:12:44 29° NW 21:15:05 10° NNW
Cosmos 2251 Rocket 4.5 21:21:23 42° NE 21:21:23 42° NE 21:24:53 10° NNE
Cosmos 2266 Rocket 4.0 21:27:55 73° NNE 21:27:55 73° NNE 21:33:31 10° N
Cosmos 1655 Rocket 4.3 21:31:01 60° ENE 21:31:01 60° ENE 21:36:38 10° NNE
Cosmos 1833 Rocket 3.8 21:35:26 36° WNW 21:35:41 36° WNW 21:40:50 10° N
ATLAS CENTAUR R/B 4.4 21:22:11 10° NW 21:36:00 76° NE 21:39:42 47° ESE
Cosmos 2082 Rocket 2.9 21:41:17 47° NE 21:41:17 47° NE 21:45:25 10° NNE
H-2A R/B 3.8 21:59:10 10° N 22:01:35 32° N 22:01:35 32° N
USA 267 3.5 22:08:10 10° NE 22:14:36 62° NW 22:15:41 55° W
NOSS 3-4 (A) 3.8 22:27:07 10° NW 22:34:21 75° WSW 22:34:26 75° SW
NOSS 3-4 (C) 3.8 22:27:13 10° NW 22:34:27 76° WSW 22:34:34 76° SW
Meteor 2-10 Rocket 4.3 22:31:18 10° NNW 22:35:52 51° NW 22:35:52 51° NW
Cosmos 1697 Rocket 4.4 22:32:59 10° NW 22:35:28 21° WNW 22:35:28 21° WNW
Cosmos 1980 Rocket 3.1 22:40:48 10° NNW 22:44:37 40° NW 22:44:37 40° NW
USA 234 4.3 22:41:04 10° ESE 22:47:09 43° NE 22:53:15 10° NNW
Cosmos 1953 4.4 22:48:25 10° N 22:50:16 25° NNE 22:50:16 25° NNE
DELTA 2 R/B (1) 4.0 22:57:05 58° NE 22:57:05 58° NE 23:01:45 10° E
Lacrosse 5 rocket 3.3 22:54:42 10° NNW 22:57:22 27° NNE 22:57:22 27° NNE
SJ 16-02 3.3 23:00:30 23° ENE 23:00:30 23° ENE 23:02:51 10° NE
Nadezhda 1 Rocket 4.2 22:54:41 10° N 23:01:02 63° E 23:01:43 59° ESE
COSMOS 2406 4.4 23:02:31 31° WNW 23:02:45 31° WNW 23:07:50 10° N
BREEZE-M R/B 3.5 23:07:43 65° ESE 23:07:43 65° ESE 23:16:40 10° NE
CZ-2D R/B 3.3 23:10:17 10° NE 23:15:07 32° E 23:15:34 31° ESE
Timation 1 Rocket 4.2 23:16:01 88° ENE 23:16:01 88° ENE 23:21:56 10° NNE
BREEZE-M DEB (TANK) 3.9 23:14:08 30° NW 23:16:17 83° NE 23:30:07 10° SE
Resurs 1-4 Rocket 3.0 23:15:24 10° NNE 23:20:15 37° E 23:20:31 37° ESE
SL-16 R/B 2.4 23:15:17 10° NNW 23:20:56 65° ENE 23:21:42 58° ESE
Cosmos 2082 Rocket 4.2 23:23:06 17° WNW 23:24:18 18° NW 23:28:03 10° NNW
Cosmos 1782 Rocket 4.2 23:30:13 10° N 23:33:39 54° NNE 23:33:39 54° NNE
Cosmos 1709 Rocket 3.9 23:35:29 70° SSW 23:36:17 87° W 23:42:40 10° N
Cosmos 2360 Rocket 3.2 23:33:26 10° N 23:38:49 42° ENE 23:42:47 17° SE
Cosmos 2237 4.1 23:41:23 10° NNW 23:46:56 66° W 23:46:56 66° W
CZ-2C R/B 3.1 23:49:50 37° SE 23:51:36 55° ENE 23:56:39 10° N
Meteor 1-24 Rocket 4.1 23:52:07 46° SSE 23:53:44 64° E 23:59:40 10° NNE
MOZ.5/SAFIR/RUBIN 5/SL-8 4.2 23:55:19 52° WNW 23:55:19 52° WNW 23:59:14 10° NNW
Tiangong 0.5 23:57:39 18° ENE 23:57:39 18° ENE 23:58:33 10° ENE
